Weather History for CWEL - December, 2012

Change the Weather History Date:

Tuesday, December 4, 2012

  Actual Average Record
Temperature  
Mean Temperature 46 °F -  
Max Temperature 50 °F - - ()
Min Temperature 42 °F - - ()
Degree Days  
Heating Degree Days 19    
Moisture  
Dew Point -    
Average Humidity    
Maximum Humidity    
Minimum Humidity    
Precipitation  
Precipitation 0.24 in - - ()
Sea Level Pressure  
Sea Level Pressure 29.53 in    
Wind  
Wind Speed 19 mph ()    
Max Wind Speed 38 mph    
Max Gust Speed 45 mph    
T = Trace of Precipitation, MM = Missing Value Source: Averaged Metar Reports

Daily Weather History Graph

Daily Weather History Graph

Search for Another Location

Airport or City:

Trip Planner

Search our weather history database for the weather conditions in past years. The results will help you decide how hot, cold, wet, or windy it might be!

Date:

Astronomy

Dec. 04, 2012 Rise Set
Actual Time 7:53 AM PST 4:18 PM PST
Civil Twilight 7:16 AM PST 4:54 PM PST
Nautical Twilight 6:36 AM PST 5:35 PM PST
Astronomical Twilight 5:57 AM PST 6:13 PM PST
Moon 10:33 PM PST (12/4) 11:30 AM PST (12/4)
Length of Visible Light 9h 38m
Length of Day
8h 24m
Waning Gibbous, 68% of the Moon is Illuminated
Dec 4
Waning Gibbous
Dec 6
Last Quarter
Dec 13
New
Dec 19
First Quarter
Dec 28
Full

Hourly Weather History & Observations

Time (PST) Temp. Windchill Dew Point Humidity Pressure Visibility Wind Dir Wind Speed Gust Speed Precip Events Conditions
12:00 AM 46.2 °F 36.6 °F - N/A% 29.49 in - ESE 32.2 mph - 0.04 in   Unknown
1:00 AM 46.6 °F - - N/A% 29.44 in - ESE 29.9 mph - 0.05 in   Unknown
2:00 AM 46.4 °F 36.5 °F - N/A% 29.35 in - ESE 34.5 mph 42.6 mph 0.06 in   Unknown
3:00 AM 47.5 °F - - N/A% 29.34 in - SE 38.0 mph 44.9 mph 0.04 in   Unknown
4:00 AM 47 °F - - % 29.34 in - SE 34.5 mph - -  
4:00 AM 46.9 °F - - N/A% 29.34 in - SE 34.5 mph 41.4 mph 0.01 in   Unknown
5:00 AM 47.3 °F - - N/A% 29.34 in - SE 31.1 mph - 0.01 in   Unknown
6:00 AM 48.2 °F - - N/A% 29.36 in - SE 29.9 mph 39.1 mph N/A   Unknown
7:00 AM 48.2 °F - - N/A% 29.43 in - SSE 8.1 mph - N/A   Unknown
8:00 AM 50.0 °F - - N/A% 29.48 in - SSE 8.1 mph - N/A   Unknown
9:00 AM 49.5 °F - - N/A% 29.53 in - South 10.4 mph - N/A   Unknown
10:00 AM 49 °F - - % 29.58 in - WSW 9.2 mph - -  
10:00 AM 49.1 °F - - N/A% 29.58 in - WSW 9.2 mph 18.4 mph N/A   Unknown
11:00 AM 49.8 °F - - N/A% 29.61 in - SSW 11.5 mph 18.4 mph N/A   Unknown
12:00 PM 50.4 °F - - N/A% 29.62 in - SE 4.6 mph - N/A   Unknown
1:00 PM 49.8 °F - - N/A% 29.63 in - WNW 4.6 mph - N/A   Unknown
2:00 PM 49.6 °F - - N/A% 29.62 in - South 16.1 mph 21.9 mph N/A   Unknown
3:00 PM 49.8 °F - - N/A% 29.61 in - SE 10.4 mph 21.9 mph N/A   Unknown
4:00 PM 48 °F - - % 29.63 in - South 10.4 mph - -  
4:00 PM 47.8 °F - - N/A% 29.63 in - South 10.4 mph - N/A   Unknown
5:00 PM 45.3 °F 41.6 °F - N/A% 29.60 in - South 6.9 mph - 0.05 in   Unknown
6:00 PM 45.5 °F 39.2 °F - N/A% 29.60 in - South 13.8 mph - 0.01 in   Unknown
7:00 PM 44.1 °F 42.5 °F - N/A% 29.60 in - SSW 3.5 mph - 0.02 in   Unknown
8:00 PM 44.4 °F 39.0 °F - N/A% 29.59 in - SSE 10.4 mph - 0.04 in   Unknown
9:00 PM 43.5 °F 37.5 °F - N/A% 29.60 in - SSW 11.5 mph - N/A   Unknown
10:00 PM 43 °F - - % 29.62 in - SSW 9.2 mph - -  
10:00 PM 42.6 °F 37.2 °F - N/A% 29.62 in - SSW 9.2 mph - 0.02 in   Unknown
11:00 PM 42.8 °F 37.5 °F - N/A% 29.64 in - SSW 9.2 mph - N/A   Unknown